Joplin, MO

5:15 PM CDT on July 25, 2017 (GMT -0500)
Joplin Regional

Weather History for KJLN - December, 2012

Change the Weather History Date:

Sunday, December 16, 2012

  Actual Average Record
Temperature  
Mean Temperature 47 °F 37 °F  
Max Temperature 60 °F 47 °F 72 °F (2006)
Min Temperature 34 °F 27 °F -7 °F (1989)
Degree Days  
Heating Degree Days 18 28  
Month to date heating degree days 276 419  
Since 1 July heating degree days 1062 1176  
Cooling Degree Days 0 0  
Month to date cooling degree days 0 0  
Year to date cooling degree days 2106 1698  
Moisture  
Dew Point 37 °F    
Average Humidity 82    
Maximum Humidity 100    
Minimum Humidity 42    
Precipitation  
Precipitation 0.00 in 0.09 in 0.76 in (2001)
Month to date precipitation 0.88 1.58  
Year to date precipitation 37.84 45.31  
Snow  
Snow 0.00 in - - ()
Month to date snowfall T  
Snow Depth 0.00 in    
Sea Level Pressure  
Sea Level Pressure 29.72 in    
Wind  
Wind Speed 6 mph (North)    
Max Wind Speed 15 mph    
Max Gust Speed 20 mph    
Visibility 6 miles    
Events Fog    
T = Trace of Precipitation, MM = Missing Value Source: NWS Daily Summary

Daily Weather History Graph

Daily Weather History Graph

Search for Another Location

Airport or City:

Trip Planner

Search our weather history database for the weather conditions in past years. The results will help you decide how hot, cold, wet, or windy it might be!

Date:

Astronomy

Dec. 16, 2012 Rise Set
Actual Time 7:25 AM CST 5:02 PM CST
Civil Twilight 6:56 AM CST 5:31 PM CST
Nautical Twilight 6:23 AM CST 6:04 PM CST
Astronomical Twilight 5:51 AM CST 6:35 PM CST
Moon 10:03 AM CST (12/16) 9:12 PM CST (12/16)
Length of Visible Light 10h 35m
Length of Day
9h 37m
Waxing Crescent, 16% of the Moon is Illuminated
Dec 16
Waxing Crescent
Dec 19
First Quarter
Dec 28
Full
Jan 4
Last Quarter
Jan 11
New

Hourly Weather History & Observations

Time (CST) Temp. Windchill Dew Point Humidity Pressure Visibility Wind Dir Wind Speed Gust Speed Precip Events Conditions
12:53 AM 44.1 °F 40.1 °F 36.0 °F 73% 29.73 in 10.0 mi South 6.9 mph - N/A   Clear
1:53 AM 44.1 °F 41.5 °F 36.0 °F 73% 29.73 in 10.0 mi South 4.6 mph - N/A   Clear
2:53 AM 43.0 °F 38.8 °F 36.0 °F 76% 29.72 in 10.0 mi South 6.9 mph - N/A   Clear
3:53 AM 44.1 °F 41.5 °F 36.0 °F 73% 29.71 in 10.0 mi South 4.6 mph - N/A   Clear
4:53 AM 43.0 °F - 35.1 °F 74% 29.71 in 10.0 mi Calm Calm - N/A   Clear
5:53 AM 39.9 °F 36.7 °F 34.0 °F 79% 29.72 in 10.0 mi SE 4.6 mph - N/A   Clear
6:53 AM 39.0 °F 36.8 °F 33.1 °F 79% 29.72 in 10.0 mi SE 3.5 mph - N/A   Clear
7:53 AM 35.1 °F - 32.0 °F 89% 29.74 in 10.0 mi Calm Calm - N/A   Clear
8:53 AM 45.0 °F - 37.0 °F 74% 29.73 in 10.0 mi Calm Calm - N/A   Clear
9:53 AM 52.0 °F - 36.0 °F 54% 29.72 in 10.0 mi SW 10.4 mph - N/A   Clear
10:53 AM 54.0 °F - 36.0 °F 51% 29.70 in 10.0 mi SW 8.1 mph - N/A   Clear
11:53 AM 55.9 °F - 37.0 °F 49% 29.67 in 10.0 mi SW 11.5 mph - N/A   Clear
1:53 PM 59.0 °F - 36.0 °F 42% 29.62 in 10.0 mi WSW 5.8 mph - N/A   Clear
2:53 PM 57.9 °F - 36.0 °F 44% 29.62 in 10.0 mi WSW 10.4 mph - N/A   Clear
3:53 PM 57.0 °F - 36.0 °F 45% 29.66 in 10.0 mi SW 15.0 mph - N/A   Clear
4:53 PM 52.0 °F - 37.9 °F 59% 29.68 in 10.0 mi WNW 8.1 mph - N/A   Clear
5:53 PM 43.0 °F 39.5 °F 39.9 °F 89% 29.71 in 7.0 mi NE 5.8 mph - N/A   Clear
6:41 PM 39.2 °F 35.9 °F 37.4 °F 93% 29.71 in 4.0 mi NNE 4.6 mph - N/A   Scattered Clouds
6:48 PM 39.2 °F 33.6 °F 39.2 °F 100% 29.71 in 2.5 mi NE 8.1 mph - N/A   Mostly Cloudy
6:53 PM 41.0 °F 38.0 °F 39.0 °F 93% 29.72 in 1.8 mi NNE 4.6 mph - N/A   Mostly Cloudy
7:06 PM 41.0 °F 34.7 °F 39.2 °F 93% 29.72 in 0.5 mi North 10.4 mph - N/A Fog Fog
7:28 PM 41.0 °F 35.8 °F 39.2 °F 93% 29.72 in 0.8 mi North 8.1 mph - N/A   Overcast
7:42 PM 41.0 °F 36.4 °F 39.2 °F 93% 29.74 in 1.0 mi NNE 6.9 mph - N/A   Overcast
7:53 PM 39.9 °F 35.1 °F 39.9 °F 100% 29.76 in 0.8 mi NNE 6.9 mph - N/A   Overcast
8:04 PM 39.2 °F 34.2 °F 39.2 °F 100% 29.75 in 1.2 mi North 6.9 mph - N/A   Overcast
8:53 PM 39.0 °F 32.8 °F 39.0 °F 100% 29.75 in 0.8 mi North 9.2 mph - N/A   Overcast
9:14 PM 39.2 °F 34.2 °F 37.4 °F 93% 29.75 in 0.5 mi North 6.9 mph - N/A Fog Fog
9:53 PM 39.0 °F 33.4 °F 39.0 °F 100% 29.76 in 0.5 mi North 8.1 mph - N/A Fog Fog
10:39 PM 37.4 °F 32.1 °F 37.4 °F 100% 29.76 in 0.8 mi North 6.9 mph - N/A   Mist
10:53 PM 37.9 °F 33.5 °F 37.9 °F 100% 29.77 in 0.8 mi North 5.8 mph - N/A   Mist
11:19 PM 37.4 °F 32.8 °F 37.4 °F 100% 29.76 in 1.0 mi North 5.8 mph - N/A   Mist
11:36 PM 37.4 °F 34.9 °F 37.4 °F 100% 29.76 in 0.8 mi NNE 3.5 mph - N/A   Overcast
11:44 PM 39.2 °F 37.0 °F 39.2 °F 100% 29.76 in 1.0 mi NE 3.5 mph - N/A   Overcast
11:53 PM 39.0 °F 35.7 °F 37.9 °F 96% 29.75 in 1.2 mi ENE 4.6 mph - N/A   Overcast